Regional Weather Roundup
Issued by NWS State College, PA

Current Version | Previous Version | Text Only | Print | Product List | Glossary On
Versions: 1 2 3 4 5 6 7 8 9 10 11 12 13 14 15 16 17 18 19 20 21 22 23 24 25 26 27 28 29 30 31 32 33 34 35 36 37 38 39 40 41 42 43 44 45 46 47 48 49 50
000
ASUS41 KCTP 020010
RWRCTP

REGIONAL WEATHER ROUNDUP
NATIONAL WEATHER SERVICE STATE COLLEGE PA
700 PM EST SUN FEB 01 2015

Note: "fair" indicates few or no clouds below 12,000 feet with no
significant weather and/or obstructions to visibility.

* = STATION THAT DOES NOT REPORT PRECIPITATION /E.G. RAIN...SNOW...ETC/
    THUNDER OR FOG.

PAZ002>004-007>009-013>016-020>023-029>032-020100-
WESTERN PENNSYLVANIA

CITY           SKY/WX    TMP DP  RH WIND       PRES   REMARKS
ERIE           LGT SNOW  23  20  88 NE14      29.81F VSB 3/4 WCI  11
MEADVILLE      SNOW      29  26  89 E10       29.73F VSB 1/2
FRANKLIN*      CLOUDY    28  25  86 E8        29.77F
NEW CASTLE     MIX PCPN  32  31  96 E7        29.75F FOG
BEAVER COUNTY  NOT AVBL
BUTLER*        CLOUDY    32  30  93 SE6       29.78F
PITTSBURGH INT LGT RAIN  33  32  96 SE7       29.75F FOG
PITTSBURGH     LGT RAIN  34  31  88 SE7       29.75F FOG
INDIANA*       MOCLDY    36  34  93 SE13      29.84F FOG
LATROBE        NOT AVBL
WASHINGTON CO* CLOUDY    36  34  93 SE5       29.76F
$$

PAZ004>006-010>012-017>019-024>028-033>037-041-042-045-046-049>053-020100-
CENTRAL PENNSYLVANIA

CITY           SKY/WX    TMP DP  RH WIND       PRES   REMARKS
BRADFORD       LGT SNOW  25  21  85 E10       29.81F VSB 3/4 WCI  15
DUBOIS         LGT SNOW  28  26  92 E15       29.80F FOG
CLEARFIELD     LGT SNOW  28  26  92 NE9       29.87F FOG
JOHNSTOWN      LGT SNOW  30  26  85 SE16G23   29.81F FOG
ALTOONA        CLOUDY    30  27  88 SE6       29.92S
STATE COLLEGE  LGT SNOW  30  27  86 SE3       29.93S
WILLIAMSPORT   LGT SNOW  29  26  89 E13       30.00F FOG
SELINSGROVE    LGT SNOW  31  29  92 SE3       30.02F FOG
FT INDIANTOWN  LGT SNOW  30  28  93 E3        30.04F FOG
CAPITAL CITY   LGT SNOW  31  30  96 E7        30.03F FOG
HARRISBURG     LGT SNOW  32  30  92 E7        30.03F FOG
YORK           CLOUDY    33  25  72 E5        30.02F
$$

PAZ038>040-043-044-047-048-054-055-060>062-067>071-020100-
EASTERN PENNSYLVANIA

CITY           SKY/WX    TMP DP  RH WIND       PRES   REMARKS
SCRANTON       LGT SNOW  28  25  88 NE5       30.03F FOG
MOUNT POCONO   LGT SNOW  25  22  88 SE7       29.98F FOG
ALLENTOWN      LGT SNOW  32  28  85 E5        30.07F FOG
QUAKERTOWN*    CLOUDY    32  28  86 E3        30.07F
READING        FLURRIES  33  28  81 S5        30.07S
LANCASTER      CLOUDY    32  27  81 E6        30.05F
COATESVILLE    CLOUDY    36  27  69 CALM      30.06S
POTTSTOWN      CLOUDY    33  27  78 CALM      30.09F
BLUE BELL      CLOUDY    36  28  75 CALM      30.07F
DOYLESTOWN     FLURRIES  31  28  89 CALM      30.07F
WILLOW GROVE   NOT AVBL
NORTH PHILA    CLOUDY    37  23  56 SE5       30.11F
PHILADELPHIA   CLOUDY    37  23  56 SE3       30.11F
$$


USA.gov is the U.S. government's official web portal to all federal, state and local government web resources and services.